[[{"header":{"parameterUnit":"m.s-1","parameterCategory":1,"la1":30.2991,"la2":30.254,"lo1":-89.0895,"lo2":-89.0444,"dy":0.0017,"dx":0.0017,"nx":28,"ny":28,"refTime":"2025-01-11T09:00:00:Z","depth":0,"parameterNumber":2,"parameterNumberName":"U-component_of_WINDS"},"data":[0,0,0,0,0,0,0,0,0,0,0,0,0,0,0,0,0,0,0,0,0,0,0,0,0,0,0,0,0,0,0,0,0,0,0,0,0,0,0,0,0,0,0,0,0,0,0,0,0,0,0,0,0,0,0,0,0,0,4.5788,4.5789,0,4.5813,4.5813,4.5814,4.5716,4.5713,4.571,4.5708,4.5734,4.5737,4.5741,0,0,0,0,0,0,0,0,0,0,0,0,0,4.5658,4.5661,4.5788,4.5789,4.5789,4.5813,4.5813,4.5814,4.5717,4.5713,4.571,4.5706,4.5733,4.5737,4.5741,0,0,0,0,0,0,0,0,0,0,0,0,0,4.5702,4.5662,4.5788,4.5743,4.574,4.5813,4.5813,4.5814,4.5717,4.5713,4.5709,4.5705,4.5732,4.5736,4.5741,4.586,0,0,4.5757,4.5759,0,0,0,0,0,0,0,0,4.57,4.5707,4.575,4.5747,4.5742,4.5757,4.5777,4.5829,4.5719,4.5726,4.5708,4.5703,4.5745,4.5749,4.5763,4.5861,4.5862,4.5757,4.5761,4.5763,4.5764,0,0,0,0,0,0,0,4.5697,4.5706,4.5798,4.575,4.5746,4.5723,4.5724,4.5787,4.576,4.5725,4.5718,4.5722,4.5742,4.5758,4.5763,4.5862,4.5757,4.5762,4.5765,4.5767,4.606,4.6064,0,0,0,0,0,0,4.57,4.5704,4.5797,4.5799,4.571,4.5728,4.573,4.5757,4.5759,4.5755,4.5726,4.5718,4.5752,4.5757,4.5764,4.5903,4.5763,4.5767,4.577,4.6055,4.6061,4.6066,0,0,0,0,0,0,4.5697,4.5709,4.5796,4.5749,4.5759,4.5735,4.5766,4.576,4.5775,4.5759,4.5754,4.5747,4.5749,4.5756,4.5837,4.5902,4.577,4.5774,4.605,4.6057,4.6063,4.6182,0,0,0,0,0,0,4.5694,4.5709,4.5753,4.5751,4.5762,4.5869,4.577,4.5763,4.5784,4.5774,4.5778,4.5774,4.5746,4.583,4.5842,4.5907,4.5778,4.6044,4.6053,4.6061,4.6172,4.6192,4.6209,0,0,0,0,0,4.569,4.5785,4.5755,4.5767,4.5816,4.5873,4.5879,4.5844,4.579,4.5835,4.5825,4.5774,4.5893,4.5839,4.5852,4.5919,4.6039,4.605,4.606,4.6163,4.6188,4.6209,0,0,0,0,0,0,4.5794,4.5784,4.5751,4.5848,4.5862,4.5856,4.5911,4.5871,4.59,4.5889,4.5845,4.5847,4.5935,4.5935,4.5874,4.6034,4.5957,4.5971,4.6031,4.6054,4.6072,4.607,4.5783,0,0,0,0,0,4.5829,4.5875,4.5863,4.5951,4.5959,4.5935,4.5958,4.593,4.5942,4.5948,4.5943,4.5958,4.5999,4.6026,4.6063,4.6172,4.6172,4.6225,4.6243,4.6259,4.6271,4.633,4.6353,4.6101,4.6101,4.6101,0,0,4.59,4.59,4.5932,4.5972,4.5979,4.6029,4.594,4.5996,4.6033,4.5956,4.6032,4.603,4.6043,4.6139,4.618,4.6141,4.6341,4.6272,4.6285,4.6288,4.6343,4.6367,4.6388,4.6108,4.6107,4.6106,0,0,4.6056,4.606,4.6134,4.6144,4.6156,4.6139,4.6157,4.6158,4.6154,4.6229,4.6173,4.6217,4.6288,4.63,4.6315,4.6479,4.6434,4.6492,4.6589,4.6647,4.6667,4.6684,4.6743,4.6764,4.6504,4.6505,4.6505,0,4.6143,4.6215,4.6177,4.6237,4.6257,4.6191,4.6265,4.6277,4.6301,4.6317,4.6272,4.6361,4.6365,4.6463,4.6504,4.6518,4.6538,4.6491,4.6667,4.6684,4.67,4.6755,4.6777,4.6511,4.6511,4.651,4.6509,0,4.6322,4.6374,4.6431,4.6457,4.6483,4.6551,4.6523,4.6554,4.6525,4.6514,4.6592,4.6595,4.6632,4.6653,4.6625,4.6748,4.6724,4.6674,4.6596,4.6731,4.6783,4.6804,4.6522,4.6519,4.6517,4.6515,0,0,4.6543,4.6547,4.6569,4.6581,4.6591,4.663,4.6696,4.6731,4.676,4.6779,4.6833,4.6896,4.6851,4.6869,4.6842,4.6892,4.7023,4.6837,4.6836,4.6871,4.716,4.7197,4.7222,4.6993,4.6997,4.7,4.7159,0,4.6696,4.6806,4.6775,4.6886,4.6934,4.6873,4.693,4.6943,4.6935,4.6974,4.6964,4.701,4.6947,4.6957,4.7005,4.6997,4.708,4.6985,4.7044,4.7046,4.7042,4.7248,4.7287,4.7436,4.7178,4.7182,4.7184,0,4.6888,4.6916,4.7033,4.7036,4.7055,4.7107,4.7138,4.7177,4.7191,4.7181,4.7203,4.7166,4.7231,4.7153,4.7243,4.7179,4.7201,4.7201,4.7206,4.721,4.7123,4.7258,4.7483,4.7505,4.7215,4.7213,4.7211,0,4.7038,4.7105,4.7183,4.7195,4.7201,4.7239,4.7244,4.7254,4.7278,4.7306,4.7321,4.7357,4.7376,4.7405,4.7379,4.7324,4.7473,4.7392,4.7467,4.7468,4.75,4.7499,4.7732,4.7516,4.7516,4.7515,4.7515,0,4.7212,4.7286,4.7251,4.7299,4.738,4.7344,4.7426,4.7423,4.7433,4.7481,4.7431,4.7476,4.7439,4.7482,4.7463,4.7541,4.755,4.7544,4.7538,4.7548,4.7549,4.7562,4.7551,4.7521,4.752,4.7519,4.7518,0,4.7392,4.7372,4.7453,4.7453,4.7455,4.7515,4.7515,4.7561,4.7549,4.761,4.7622,4.7605,4.7653,4.763,4.768,4.7667,4.7767,4.7747,4.7763,4.7757,4.7833,4.7827,4.8083,4.8115,4.7879,4.7881,4.7883,0,4.7505,4.756,4.7566,4.7595,4.7603,4.7649,4.7673,4.7641,4.7669,4.769,4.7733,4.7777,4.781,4.789,4.7882,4.7921,4.7901,4.7989,4.7907,4.7916,4.7903,4.79,4.7906,4.8005,4.8008,4.801,4.8012,0,4.7706,4.7694,4.7731,4.7766,4.7797,4.7823,4.7845,4.7871,4.7839,4.7873,4.7922,4.7948,4.8,4.8044,4.8078,4.8084,4.8043,4.8038,4.8057,4.8068,4.8075,4.8073,4.7807,4.8032,4.803,4.8028,4.8027,4.8027,4.7856,4.7903,4.7915,4.7959,4.7972,4.7994,4.8036,4.8031,4.8071,4.811,4.8089,4.8146,4.8161,4.8202,4.8214,4.8258,4.8224,4.8252,4.8259,4.8266,4.8277,4.8069,4.8265,4.8264,4.8263,4.8263,4.8262,0,4.8055,4.806,4.8101,4.8133,4.8168,4.8127,4.815,4.8182,4.8233,4.825,4.8284,4.8341,4.8384,4.8381,4.8421,4.8458,4.844,4.8469,4.8466,4.8468,4.8305,4.8284,4.8483,4.8483,4.8483,4.8483,4.8483,4.8483,4.8162,4.824,4.8229,4.8313,4.8318,4.8374,4.839,4.8411,4.8424,4.849,4.8526,4.8523,4.8532,4.8573,4.8611,4.8609,4.8626,4.8663,4.8654,4.8501,4.8479,4.8459,4.8439,4.8667,4.8667,4.8813,4.8814,4.8816]},{"header":{"parameterUnit":"m.s-1","parameterCategory":1,"la1":30.2991,"la2":30.254,"lo1":-89.0895,"lo2":-89.0444,"dy":0.0017,"dx":0.0017,"nx":28,"ny":28,"refTime":"2025-01-11T09:00:00:Z","depth":0,"parameterNumber":3,"parameterNumberName":"V-component_of_WINDS"},"data":[0,0,0,0,0,0,0,0,0,0,0,0,0,0,0,0,0,0,0,0,0,0,0,0,0,0,0,0,0,0,0,0,0,0,0,0,0,0,0,0,0,0,0,0,0,0,0,0,0,0,0,0,0,0,0,0,0,0,-5.9953,-5.9955,0,-6.0192,-6.0194,-6.0197,-6.0198,-6.0195,-6.0192,-6.0189,-6.0433,-6.0442,-6.0451,0,0,0,0,0,0,0,0,0,0,0,0,0,-5.9496,-5.9505,-5.9952,-5.9956,-5.9959,-6.0191,-6.0195,-6.0198,-6.0198,-6.0195,-6.0191,-6.0187,-6.043,-6.0441,-6.0452,0,0,0,0,0,0,0,0,0,0,0,0,0,-5.9711,-5.9508,-5.9952,-5.9987,-5.9992,-6.0191,-6.0195,-6.0199,-6.0199,-6.0195,-6.019,-6.0186,-6.0426,-6.044,-6.0453,-6.0633,0,0,-6.0496,-6.0502,0,0,0,0,0,0,0,0,-5.9699,-5.9728,-5.9979,-5.9985,-5.9991,-6.016,-6.0123,-6.0344,-6.02,-6.0121,-6.0189,-6.0183,-6.0346,-6.0366,-6.0421,-6.0644,-6.0654,-6.0498,-6.0506,-6.0512,-6.0516,0,0,0,0,0,0,0,-5.9684,-5.9717,-6.0047,-5.9982,-5.999,-5.9991,-6.0016,-6.0165,-6.0256,-6.0127,-6.0128,-6.0156,-6.0348,-6.0407,-6.0427,-6.0658,-6.0497,-6.051,-6.0518,-6.0524,-6.1041,-6.1046,0,0,0,0,0,0,-5.9662,-5.9705,-6.004,-6.0054,-5.9831,-6.0003,-6.0031,-6.0111,-6.0255,-6.0272,-6.016,-6.0155,-6.0386,-6.041,-6.0435,-6.0655,-6.0512,-6.0525,-6.0533,-6.1036,-6.1042,-6.1048,0,0,0,0,0,0,-5.9652,-5.9692,-6.003,-5.988,-5.9923,-6.0015,-6.0105,-6.0118,-6.0177,-6.0279,-6.0295,-6.0204,-6.0383,-6.0416,-6.0584,-6.0664,-6.0532,-6.0544,-6.1029,-6.1038,-6.1045,-6.1096,0,0,0,0,0,0,-5.9639,-5.9688,-5.9757,-5.9882,-5.9931,-6.0175,-6.011,-6.0126,-6.0201,-6.0198,-6.0325,-6.0341,-6.0382,-6.0563,-6.0598,-6.0681,-6.0555,-6.1023,-6.1033,-6.1042,-6.1087,-6.1104,-6.1119,0,0,0,0,0,-5.9623,-5.9762,-5.9761,-5.9801,-6.0019,-6.0179,-6.0208,-6.0252,-6.0208,-6.0278,-6.0344,-6.0337,-6.0649,-6.058,-6.0619,-6.0708,-6.1018,-6.103,-6.1042,-6.108,-6.1101,-6.1119,0,0,0,0,0,0,-5.9644,-5.9779,-5.9779,-5.9962,-6.0059,-6.0179,-6.0269,-6.0272,-6.0384,-6.0376,-6.0426,-6.0454,-6.0622,-6.0682,-6.0602,-6.0889,-6.0828,-6.0849,-6.0844,-6.0865,-6.088,-6.0862,-6.0567,0,0,0,0,0,-5.967,-5.9789,-5.99,-6.0051,-6.01,-6.0176,-6.0247,-6.0273,-6.0376,-6.0416,-6.0494,-6.0594,-6.0715,-6.0793,-6.0909,-6.1096,-6.1124,-6.1176,-6.1192,-6.1204,-6.1221,-6.1325,-6.135,-6.1087,-6.1087,-6.1087,0,0,-5.9725,-5.9813,-5.9885,-6.0057,-6.0136,-6.0258,-6.021,-6.0341,-6.0432,-6.0436,-6.06,-6.0661,-6.0775,-6.0954,-6.1036,-6.1009,-6.13,-6.122,-6.1229,-6.1239,-6.134,-6.1365,-6.1387,-6.1095,-6.1094,-6.1092,0,0,-5.9887,-5.9966,-6.0101,-6.018,-6.03,-6.035,-6.0382,-6.0502,-6.0542,-6.0708,-6.0714,-6.0822,-6.1029,-6.111,-6.1179,-6.1373,-6.1372,-6.141,-6.1493,-6.1593,-6.1614,-6.1633,-6.1702,-6.1727,-6.1426,-6.1427,-6.1427,0,-5.994,-6.0125,-6.0169,-6.0301,-6.0377,-6.0387,-6.0524,-6.0599,-6.075,-6.0802,-6.0769,-6.1029,-6.1107,-6.1305,-6.1352,-6.1407,-6.1446,-6.1395,-6.1607,-6.1627,-6.1645,-6.1712,-6.1738,-6.143,-6.143,-6.143,-6.1429,0,-6.0184,-6.0312,-6.0406,-6.0553,-6.0639,-6.0773,-6.0838,-6.092,-6.0939,-6.0992,-6.1161,-6.1254,-6.139,-6.1439,-6.1458,-6.1641,-6.162,-6.1597,-6.1537,-6.1673,-6.1737,-6.1763,-6.1436,-6.1435,-6.1433,-6.1433,0,0,-6.0366,-6.0536,-6.057,-6.0637,-6.077,-6.0869,-6.1003,-6.1137,-6.1207,-6.1311,-6.1425,-6.16,-6.158,-6.1657,-6.1686,-6.1774,-6.1923,-6.174,-6.1744,-6.1771,-6.213,-6.2146,-6.2175,-6.1922,-6.1927,-6.1931,-6.212,0,-6.0543,-6.0782,-6.0827,-6.1035,-6.1153,-6.1165,-6.1282,-6.1376,-6.143,-6.1538,-6.1598,-6.1721,-6.1685,-6.1732,-6.182,-6.1886,-6.1995,-6.1873,-6.2029,-6.2034,-6.2,-6.2209,-6.2227,-6.24,-6.2145,-6.215,-6.2153,0,-6.0781,-6.0892,-6.1112,-6.1229,-6.1281,-6.1385,-6.1512,-6.1615,-6.1722,-6.1755,-6.1843,-6.1861,-6.2001,-6.1935,-6.2129,-6.2045,-6.2111,-6.2153,-6.2161,-6.2178,-6.2101,-6.2231,-6.2457,-6.2483,-6.2192,-6.2189,-6.2186,0,-6.0893,-6.1096,-6.1255,-6.1311,-6.1452,-6.1525,-6.1588,-6.169,-6.1768,-6.1878,-6.1929,-6.2054,-6.2123,-6.2219,-6.2271,-6.2218,-6.2462,-6.2399,-6.2493,-6.2492,-6.2544,-6.254,-6.2784,-6.2587,-6.2586,-6.2586,-6.2585,0,-6.1086,-6.122,-6.1307,-6.1404,-6.1555,-6.1605,-6.1753,-6.1814,-6.1905,-6.2015,-6.2032,-6.2134,-6.2197,-6.2309,-6.235,-6.2505,-6.2535,-6.2566,-6.2576,-6.2565,-6.2561,-6.2609,-6.2599,-6.2593,-6.2591,-6.259,-6.2589,0,-6.1235,-6.1299,-6.1472,-6.1591,-6.1625,-6.1731,-6.1833,-6.1928,-6.1982,-6.212,-6.2155,-6.224,-6.2372,-6.2434,-6.2597,-6.2625,-6.2801,-6.2802,-6.2765,-6.2769,-6.2859,-6.285,-6.3143,-6.3184,-6.2959,-6.2961,-6.2963,0,-6.1354,-6.1458,-6.1589,-6.1663,-6.1727,-6.1848,-6.1927,-6.198,-6.2063,-6.2193,-6.2272,-6.2405,-6.2515,-6.2725,-6.2801,-6.2927,-6.2931,-6.3025,-6.295,-6.2936,-6.2933,-6.2927,-6.2937,-6.3039,-6.3041,-6.3043,-6.3044,0,-6.1559,-6.1586,-6.17,-6.1825,-6.192,-6.2021,-6.212,-6.2181,-6.225,-6.2341,-6.2477,-6.2562,-6.2729,-6.2861,-6.2992,-6.3055,-6.3062,-6.3067,-6.3096,-6.3086,-6.306,-6.3076,-6.2803,-6.306,-6.3059,-6.3057,-6.3057,-6.3056,-6.1698,-6.1791,-6.1897,-6.2024,-6.2104,-6.2197,-6.2293,-6.2359,-6.2473,-6.2613,-6.2638,-6.2782,-6.2887,-6.3064,-6.3132,-6.3246,-6.3224,-6.3265,-6.3276,-6.3285,-6.329,-6.3042,-6.327,-6.327,-6.3269,-6.3269,-6.3269,0,-6.1904,-6.1973,-6.2089,-6.2228,-6.2328,-6.2325,-6.2435,-6.2519,-6.2646,-6.2743,-6.2851,-6.3007,-6.3135,-6.3222,-6.3352,-6.3426,-6.3433,-6.3459,-6.3454,-6.3469,-6.3302,-6.3265,-6.3452,-6.3451,-6.3451,-6.3451,-6.3451,-6.3451,-6.2023,-6.218,-6.2219,-6.2417,-6.2485,-6.2627,-6.269,-6.2776,-6.2854,-6.3028,-6.3135,-6.319,-6.3284,-6.3421,-6.3539,-6.3561,-6.3608,-6.3635,-6.3657,-6.3499,-6.348,-6.3462,-6.3427,-6.3645,-6.3645,-6.3814,-6.3815,-6.3816]}]]